Weather History for La Paz, B. C. S., Mexico

Change the Weather History Date:

Wednesday, October 2, 2013

  Actual Average Record
Temperature  
Mean Temperature 86 °F -  
Max Temperature 99 °F 90 °F - ()
Min Temperature 73 °F 67 °F - ()
Cooling Degree Days 21    
Growing Degree Days 36 (Base 50)    
Moisture  
Dew Point 63 °F    
Average Humidity 47    
Maximum Humidity 83    
Minimum Humidity 19    
Precipitation  
Precipitation 0.00 in - - ()
Sea Level Pressure  
Sea Level Pressure 29.87 in    
Wind  
Wind Speed 6 mph ()    
Max Wind Speed 15 mph    
Max Gust Speed -    
Visibility 11.3 miles    
Events      
T = Trace of Precipitation, MM = Missing Value Source: Averaged Metar Reports

Daily Weather History Graph

Daily Weather History Graph

Search for Another Location

Airport:

Trip Planner

Search our weather history database for the weather conditions in past years. The results will help you decide how hot, cold, wet, or windy it might be!

Date:

Astronomy

Oct. 02, 2013 Rise Set
Actual Time 7:13 AM MDT 7:06 PM MDT
Civil Twilight 6:50 AM MDT 7:29 PM MDT
Nautical Twilight 6:24 AM MDT 7:55 PM MDT
Astronomical Twilight 5:58 AM MDT 8:22 PM MDT
Moon 5:02 AM MDT (10/2) 5:36 PM MDT (10/2)
Length of Visible Light 12h 38m
Length of Day
11h 53m
Waning Crescent, 6% of the Moon is Illuminated
Oct 2
Waning Crescent
Oct 4
New
Oct 11
First Quarter
Oct 18
Full
Oct 26
Last Quarter

Hourly Weather History & Observations

Time (MDT) Temp. Heat Index Dew Point Humidity Pressure Visibility Wind Dir Wind Speed Gust Speed Precip Events Conditions
2:50 AM 77 °F - 69 °F 71% 29.88 in 2 mi South 6.7 mph - -  
5:50 AM 76 °F - 67 °F 68% 29.86 in 2 mi SE 4.5 mph - -  
5:59 AM 71.6 °F - 64.4 °F 78% 29.94 in 10.0 mi South 6.9 mph - N/A   Clear
6:41 AM 69.8 °F - 64.4 °F 83% 29.88 in 10.0 mi South 6.9 mph - N/A   Clear
7:40 AM 69.8 °F - 64.4 °F 83% 29.90 in 10.0 mi SSW 4.6 mph - N/A   Clear
8:48 AM 77.0 °F - 62.6 °F 61% 29.96 in 12.0 mi South 8.1 mph - N/A   Clear
9:00 AM - - 80 °F %  in 19 mi SSE 4.5 mph - -  
9:42 AM 84.2 °F 84.4 °F 60.8 °F 45% 29.92 in 12.0 mi South 5.8 mph - N/A   Clear
10:43 AM 91.4 °F 89.9 °F 57.2 °F 31% 29.91 in 12.0 mi Calm Calm - N/A   Clear
11:50 AM 96 °F - 64 °F 25% 29.91 in 19 mi SW 4.5 mph - -  
11:54 AM 91.4 °F 89.1 °F 53.6 °F 28% 29.96 in 12.0 mi North 6.9 mph - N/A   Partly Cloudy
12:40 PM 93.2 °F 90.8 °F 53.6 °F 26% 29.88 in 12.0 mi North 11.5 mph - N/A   Partly Cloudy
1:43 PM 93.2 °F 90.8 °F 53.6 °F 26% 29.85 in 12.0 mi North 11.5 mph - N/A   Partly Cloudy
2:40 PM 95.0 °F - 51.8 °F 23% 29.87 in 12.0 mi NNW 15.0 mph - N/A   Partly Cloudy
2:50 PM 98 °F - 60 °F 19% 29.83 in 19 mi NW 8.9 mph - -   Scattered Clouds
3:47 PM 95.0 °F 93.7 °F 57.2 °F 28% 29.81 in 12.0 mi North 12.7 mph - N/A   Partly Cloudy
4:47 PM 93.2 °F 91.9 °F 57.2 °F 30% 29.80 in 12.0 mi North 11.5 mph - N/A   Partly Cloudy
5:43 PM 93.2 °F 92.6 °F 59.0 °F 32% 29.85 in 12.0 mi North 4.6 mph - N/A   Clear
5:45 PM 97 °F - 69 °F 30% 29.78 in 19 mi North 4.5 mph - -   Scattered Clouds
6:40 PM 91.4 °F 89.4 °F 55.4 °F 29% 29.81 in 12.0 mi WNW 5.8 mph - N/A   Clear
7:43 PM 86.0 °F 89.4 °F 68.0 °F 55% 29.83 in 12.0 mi WNW 2.3 mph - N/A   Clear
8:40 PM 84.2 °F 85.0 °F 62.6 °F 48% 29.90 in 12.0 mi SSW 5.8 mph - N/A   Clear
8:45 PM 87 °F - 75 °F 60% 29.82 in 2 mi South 4.5 mph - -  
9:50 PM 80.6 °F 82.7 °F 66.2 °F 61% 29.88 in 12.0 mi South 11.5 mph - N/A   Clear
10:40 PM 78.8 °F - 66.2 °F 65% 29.89 in 12.0 mi South 13.8 mph - N/A   Clear
11:50 PM 80 °F - 70 °F 65% 29.89 in 2 mi South 8.9 mph - -